This is the latest recevied weather packets stored in our database for station/object SR8NGO-1. If no packets are shown the sender has not sent any weather packets the latest 1 day(s).
| Time | Temp. | Humidity | Pressure | Rain* | Wind** | Luminosity | Snow |
|---|---|---|---|---|---|---|---|
| 1778012687 | 17.22° C | 50% | 997.9 hPa | 125.98 mm | 2.68 m/s, 166° | - | - |
| 1778012448 | 17.22° C | 49% | 997.9 hPa | 125.98 mm | 1.79 m/s, 145° | - | - |
| 1778012208 | 17.78° C | 49% | 997.9 hPa | 125.98 mm | 1.34 m/s, 121° | - | - |
| 1778011968 | 17.22° C | 49% | 997.9 hPa | 125.98 mm | 0.89 m/s, 149° | - | - |
| 1778011728 | 17.22° C | 50% | 997.9 hPa | 125.98 mm | 1.34 m/s, 155° | - | - |
| 1778011488 | 17.22° C | 50% | 998 hPa | 125.98 mm | 1.79 m/s, 161° | - | - |
| 1778011247 | 17.22° C | 50% | 997.9 hPa | 125.98 mm | 1.79 m/s, 149° | - | - |
| 1778011008 | 17.22° C | 49% | 997.9 hPa | 125.98 mm | 1.79 m/s, 115° | - | - |
| 1778010768 | 17.22° C | 49% | 997.9 hPa | 125.98 mm | 0.89 m/s, 127° | - | - |
| 1778010528 | 17.22° C | 49% | 997.9 hPa | 125.98 mm | 1.34 m/s, 121° | - | - |
| 1778010288 | 17.78° C | 49% | 997.9 hPa | 125.98 mm | 1.34 m/s, 123° | - | - |
| 1778010048 | 17.22° C | 49% | 997.9 hPa | 125.98 mm | 1.79 m/s, 138° | - | - |
| 1778009808 | 17.22° C | 48% | 997.9 hPa | 125.98 mm | 1.79 m/s, 139° | - | - |
| 1778009568 | 17.22° C | 48% | 997.9 hPa | 125.98 mm | 0.89 m/s, 156° | - | - |
| 1778009328 | 17.22° C | 48% | 997.9 hPa | 125.98 mm | 0.89 m/s, 138° | - | - |
| 1778009088 | 17.22° C | 48% | 997.9 hPa | 125.98 mm | 2.24 m/s, 145° | - | - |
| 1778008848 | 17.22° C | 47% | 997.9 hPa | 125.98 mm | 1.79 m/s, 145° | - | - |
| 1778008608 | 17.78° C | 47% | 997.9 hPa | 125.98 mm | 2.24 m/s, 162° | - | - |
| 1778008368 | 17.22° C | 47% | 997.9 hPa | 125.98 mm | 1.34 m/s, 149° | - | - |
| 1778008128 | 17.22° C | 47% | 997.9 hPa | 125.98 mm | 2.24 m/s, 189° | - | - |
| 1778007888 | 17.78° C | 47% | 997.9 hPa | 125.98 mm | 1.79 m/s, 162° | - | - |
| 1778007647 | 17.78° C | 46% | 997.9 hPa | 125.98 mm | 1.79 m/s, 144° | - | - |
| 1778007407 | 17.78° C | 46% | 997.8 hPa | 125.98 mm | 1.79 m/s, 132° | - | - |
| 1778007167 | 17.78° C | 46% | 997.8 hPa | 125.98 mm | 1.79 m/s, 144° | - | - |
| 1778006928 | 17.78° C | 46% | 997.8 hPa | 125.98 mm | 1.34 m/s, 138° | - | - |
* Rain latest hour (hover to see other rain measurements)
** Current wind speed in m/s (hover to see current wind gust speed)